Regional Weather Roundup
Issued by NWS

Home | Current Version | Previous Version | Graphics & Text | Print | Product List | Glossary Off
Versions: 1 2 3 4 5 6 7 8 9 10 11 12 13 14 15 16 17 18 19 20 21 22 23 24 25 26 27 28 29 30 31 32 33 34 35 36 37 38 39 40 41 42 43 44 45 46 47 48 49 50

481
ASUS43 KMKX 270021
RWRWI

WISCONSIN REGIONAL WEATHER ROUNDUP
NATIONAL WEATHER SERVICE MILWAUKEE/SULLIVAN WI
700 PM CDT MON JUN 26 2017

NOTE: "FAIR" INDICATES FEW OR NO CLOUDS BELOW 12,000 FEET WITH NO
SIGNIFICANT WEATHER AND/OR OBSTRUCTIONS TO VISIBILITY.

WIZ001-002-006>008-014>016-023>028-270100-
NORTHWEST WISCONSIN

CITY           SKY/WX    TMP DP  RH WIND       PRES   REMARKS
SUPERIOR ARPT  NOT AVBL
ASHLAND        PTSUNNY   62  48  60 W8        30.05F
6HR MIN TEMP:  57; 6HR MAX TEMP:  69; 6HR PCP:  0.01;

HAYWARD        CLOUDY    64  48  56 VRB3      30.07F
6HR MIN TEMP:  56; 6HR MAX TEMP:  66; 6HR PCP:  0.11;

SIREN          LGT RAIN  62  47  59 CALM      30.09R
6HR MIN TEMP:  57; 6HR MAX TEMP:  69; 6HR PCP:  0.01;

CUMBERLAND     LGT RAIN  55  48  76 CALM      30.10S
RICE LAKE      LGT RAIN  58  48  70 NE5       30.12R
6HR MIN TEMP:  57; 6HR MAX TEMP:  67; 6HR PCP:  0.13;

CHETEK         HVY RAIN  56  50  80 NW7G18    30.11R
6HR MIN TEMP:  56; 6HR MAX TEMP:  67; 6HR PCP:  0.13;

LADYSMITH      MOSUNNY   62  49  63 NW9       30.09F
6HR MIN TEMP:  58; 6HR MAX TEMP:  67;

EAU CLAIRE     MOSUNNY   65  47  52 NW9       30.08F
6HR MIN TEMP:  56; 6HR MAX TEMP:  70; 6HR PCP:  0.04;

MENOMONIE      MOSUNNY   63  45  52 NW8       30.09F
6HR MIN TEMP:  62; 6HR MAX TEMP:  69;

NEW RICHMOND   MOSUNNY   65  44  46 CALM      30.11F
6HR MIN TEMP:  58; 6HR MAX TEMP:  70; 6HR PCP:  0.01;

OSCEOLA        MOSUNNY   67  45  44 CALM      30.12F
6HR MIN TEMP:  61; 6HR MAX TEMP:  70; 6HR PCP:  0.01;

$$

WIZ003>005-009-010-017-018-270100-
NORTH CENTRAL WISCONSIN

CITY           SKY/WX    TMP DP  RH WIND       PRES   REMARKS
MANITOWISH WTR MOSUNNY   62  44  52 NW12G18   30.04S
6HR MIN TEMP:  56; 6HR MAX TEMP:  64;

ARBOR VITAE    SUNNY     60  44  57 NW6       30.03S
6HR MIN TEMP:  55; 6HR MAX TEMP:  64;

WOODRUFF       SUNNY     60  44  57 NW6       30.03S
6HR MIN TEMP:  55; 6HR MAX TEMP:  64;

RHINELANDER    SUNNY     62  42  47 VRB6      30.04F
6HR MIN TEMP:  53; 6HR MAX TEMP:  64;

EAGLE RIVER    SUNNY     60  39  45 NW8       30.03S
6HR MIN TEMP:  53; 6HR MAX TEMP:  64;

LAND O LAKES   SUNNY     62  41  46 NW6       30.04F
6HR MIN TEMP:  53; 6HR MAX TEMP:  64;

PHILLIPS       TSTM      51  47  89 N6        30.08R
6HR MIN TEMP:  56; 6HR MAX TEMP:  64;

TOMAHAWK       NOT AVBL
MEDFORD        SUNNY     60  47  62 NW7       30.07F
6HR MIN TEMP:  56; 6HR MAX TEMP:  64;

MERRILL        MOSUNNY   62  46  55 NW12      30.05S
6HR MIN TEMP:  54; 6HR MAX TEMP:  65;

$$

WIZ029-030-035-036-043>047-270100-
CENTRAL WISCONSIN

CITY           SKY/WX    TMP DP  RH WIND       PRES   REMARKS
WAUSAU         MOSUNNY   63  43  48 NW5       30.03F
6HR MIN TEMP:  54; 6HR MAX TEMP:  65; 6HR PCP: TRACE;

MOSINEE        PTSUNNY   63  45  51 NW8       30.06F
MARSHFIELD     LGT RAIN  60  47  61 NW10G22   30.06S
6HR MIN TEMP:  56; 6HR MAX TEMP:  65; 6HR PCP: TRACE;

STEVENS POINT  SUNNY     62  43  49 NW7       30.06S
6HR MIN TEMP:  55; 6HR MAX TEMP:  62;

WAUPACA        SUNNY     65  43  44 N6        30.05S
6HR MIN TEMP:  59; 6HR MAX TEMP:  67; 6HR PCP:  0.01;

WAUTOMA        SUNNY     64  45  49 N7        30.06S
6HR MIN TEMP:  57; 6HR MAX TEMP:  65;

WISC RAPIDS    SUNNY     66  46  48 NW7       30.07S
6HR MIN TEMP:  58; 6HR MAX TEMP:  67;

CAMP DOUGLAS   PTSUNNY   64  48  55 N3        30.06S
                                      6HR PCP: TRACE;

$$

WIZ011>013-019>022-031-037>040-048>050-270100-
NORTHEAST WISCONSIN

CITY           SKY/WX    TMP DP  RH WIND       PRES   REMARKS
ANTIGO         SUNNY     60  46  58 N7        30.05S
6HR MIN TEMP:  51; 6HR MAX TEMP:  61;

SHAWANO        PTSUNNY   64  47  55 N7        30.04S
6HR MIN TEMP:  57; 6HR MAX TEMP:  65; 6HR PCP:  0.08;

OCONTO         MOSUNNY   59  53  79 N5        30.02S
6HR MIN TEMP:  52; 6HR MAX TEMP:  62; 6HR PCP:  0.34;

STURGEON BAY     N/A     58  50  75 NW9         N/A
6HR MIN TEMP:  54; 6HR MAX TEMP:  60;

GREEN BAY      CLOUDY    59  56  89 NW7       30.04S
6HR MIN TEMP:  53; 6HR MAX TEMP:  63; 6HR PCP:  0.33;

MANITOWOC      PTSUNNY   59  50  72 NW13G22   30.03R
6HR MIN TEMP:  55; 6HR MAX TEMP:  62; 6HR PCP:  0.01;

APPLETON       PTSUNNY   57  46  67 N8        30.03S
CLINTONVILLE   MOSUNNY   63  43  48 N3        30.04S
OSHKOSH        CLOUDY    61  47  59 N9        30.04S
6HR MIN TEMP:  57; 6HR MAX TEMP:  63; 6HR PCP:  0.01;

$$

WIZ032>034-041-042-053>061-270100-
SOUTHWEST WISCONSIN

CITY           SKY/WX    TMP DP  RH WIND       PRES   REMARKS
LA CROSSE      SUNNY     70  45  40 NW12      30.08R
6HR MIN TEMP:  68; 6HR MAX TEMP:  75;

SPARTA         PTSUNNY   65  44  46 NW7       30.08S
6HR MIN TEMP:  61; 6HR MAX TEMP:  68;

VIROQUA        SUNNY     64  45  49 NW10      30.09S
6HR MIN TEMP:  60; 6HR MAX TEMP:  66;

BOSCOBEL       MOSUNNY   70  43  37 NW10      30.08S
6HR MIN TEMP:  66; 6HR MAX TEMP:  71;

PRAIRIE DU CHI SUNNY     68  39  34 NW9       30.08S
6HR MIN TEMP:  66; 6HR MAX TEMP:  69;

PLATTEVILLE    SUNNY     67  42  40 N13       30.09R
6HR MIN TEMP:  66; 6HR MAX TEMP:  69;

$$

WIZ056-057-062-063-064-067-068-270100-
SOUTH CENTRAL WISCONSIN

CITY           SKY/WX    TMP DP  RH WIND       PRES   REMARKS
REEDSBURG      SUNNY     64  46  51 N7        30.07S
6HR MIN TEMP:  59; 6HR MAX TEMP:  65;

BARABOO/DELLS  SUNNY     64  43  47 CALM      30.07S
6HR MIN TEMP:  57; 6HR MAX TEMP:  65;

LONE ROCK      MOSUNNY   67  44  43 N6        30.07S
6HR MIN TEMP:  64; 6HR MAX TEMP:  69;

MINERAL POINT  SUNNY     66  41  39 NW9G17    30.09R
MADISON        MOSUNNY   64  45  49 NW10      30.06S
6HR MIN TEMP:  60; 6HR MAX TEMP:  65; 6HR PCP: TRACE;

MIDDLETON      SUNNY     65  45  48 N10       30.08R
6HR MIN TEMP:  63; 6HR MAX TEMP:  67;

WATERTOWN      NOT AVBL
MONROE         MOSUNNY   63  41  45 N8G17     30.07S
JANESVILLE     MOSUNNY   66  43  42 NW8       30.06R
$$

WIZ051-052-058>065-066-070>072-270100-
SOUTHEAST WISCONSIN

CITY           SKY/WX    TMP DP  RH WIND       PRES   REMARKS
MILWAUKEE      MOSUNNY   65  44  46 NW13      30.03S
6HR MIN TEMP:  61; 6HR MAX TEMP:  69; 6HR PCP: TRACE;

WAUKESHA       MOSUNNY   61  45  55 NW15      30.05S
MILWAUKEE/TIMM MOSUNNY   63  41  45 NW15      30.04S
RACINE         SUNNY     64  43  46 NW14      30.05R
6HR MIN TEMP:  60; 6HR MAX TEMP:  69; 6HR PCP: TRACE;

KENOSHA        PTSUNNY   63  45  51 NW12G21   30.04S
6HR MIN TEMP:  61; 6HR MAX TEMP:  69; 6HR PCP: TRACE;

FOND DU LAC    PTSUNNY   61  46  57 N9        30.05S
6HR MIN TEMP:  57; 6HR MAX TEMP:  64; 6HR PCP: TRACE;

SHEBOYGAN      MOSUNNY   58  53  84 NW13      30.02S
6HR MIN TEMP:  54; 6HR MAX TEMP:  63; 6HR PCP:  0.04;

WEST BEND      MOSUNNY   55  50  82 NW13G22   30.04R
JUNEAU         PTSUNNY   62  45  54 NW9G16    30.06S
6HR MIN TEMP:  56; 6HR MAX TEMP:  63;

$$

LSZ147-162-270100-
LAKE SUPERIOR

STATION/POSITION TIME  TEMP    WIND        PRES    WAVE
                       AIR SEA DIR/SP/G            HT/PER
                 (UTC) (F)     (DEG/KT/KT) (MB)    (FT/S)
W MID LAKE BUOY  2350   45 39  230/ 10/ 12 1016.4F   1/ 4
DEVILS ISLAND    0000   57     240/ 15/ 17 1016.6F
PORT WING        2309   61     260/  7/ 35 1018.3
SAXON HARBOR     2340   63     270/  5/  8 1016.9S
$$

LMZ867-665-643>646-270100-
LAKE MICHIGAN

STATION/POSITION TIME  TEMP    WIND        PRES    WAVE
                       AIR SEA DIR/SP/G            HT/PER
                 (UTC) (F)     (DEG/KT/KT) (MB)    (FT/S)
CHAMBERS ISLAND  2340   62     280/  3/  6 1015.6S
S GREEN BAY BUOY 0000   59     300/  8/  8 1016.3
N MID LAKE BUOY  2350   56 56  320/  8/ 10 1016.1R   2/ 4
NORTHPORT PIER   2340   60     330/  5/



USA.gov is the U.S. government's official web portal to all federal, state and local government web resources and services.